[[{"header":{"parameterUnit":"m.s-1","parameterCategory":1,"la1":30.2991,"la2":30.254,"lo1":-89.0895,"lo2":-89.0444,"dx":0.0017,"dy":0.0017,"nx":28,"ny":28,"refTime":"2022-12-12T03:00:00:Z","depth":0,"parameterNumber":2,"parameterNumberName":"U-component_of_WINDS"},"data":[0,0,0,0,0,0,0,0,0,0,0,0,0,0,0,0,0,0,0,0,0,0,0,0,0,0,0,0,0,0,0,0,0,0,0,0,0,0,0,0,0,0,0,0,0,0,0,0,0,0,0,0,0,0,0,0,0,0,-1.8604,-1.8604,0,-1.8682,-1.8683,-1.8684,-1.8666,-1.8665,-1.8663,-1.8662,-1.8746,-1.875,-1.8753,0,0,0,0,0,0,0,0,0,0,0,0,0,-1.8443,-1.8446,-1.8603,-1.8604,-1.8605,-1.8682,-1.8683,-1.8684,-1.8666,-1.8664,-1.8663,-1.8661,-1.8745,-1.8749,-1.8754,0,0,0,0,0,0,0,0,0,0,0,0,0,-1.8516,-1.8447,-1.8603,-1.8606,-1.8607,-1.8682,-1.8683,-1.8684,-1.8667,-1.8664,-1.8662,-1.866,-1.8744,-1.8749,-1.8754,-1.8833,0,0,-1.8771,-1.8773,0,0,0,0,0,0,0,0,-1.8512,-1.8522,-1.8604,-1.8606,-1.8607,-1.8662,-1.8657,-1.8734,-1.8667,-1.8644,-1.8662,-1.8659,-1.872,-1.8727,-1.8747,-1.8837,-1.8841,-1.8771,-1.8775,-1.8777,-1.8779,0,0,0,0,0,0,0,-1.8507,-1.8519,-1.8635,-1.8606,-1.8607,-1.8604,-1.8612,-1.8672,-1.8694,-1.8646,-1.8645,-1.8654,-1.872,-1.8742,-1.8749,-1.8842,-1.8771,-1.8776,-1.878,-1.8782,-1.9002,-1.9005,0,0,0,0,0,0,-1.85,-1.8515,-1.8632,-1.8637,-1.8553,-1.8609,-1.8618,-1.8647,-1.8693,-1.8698,-1.8656,-1.8653,-1.8734,-1.8743,-1.8752,-1.8848,-1.8777,-1.8782,-1.8785,-1.9,-1.9003,-1.9005,0,0,0,0,0,0,-1.8497,-1.8511,-1.8629,-1.8576,-1.859,-1.8614,-1.8647,-1.8649,-1.8671,-1.8701,-1.8705,-1.8674,-1.8732,-1.8744,-1.8813,-1.8851,-1.8785,-1.879,-1.8997,-1.9001,-1.9004,-1.904,0,0,0,0,0,0,-1.8492,-1.851,-1.8539,-1.8576,-1.8593,-1.8687,-1.8649,-1.8652,-1.868,-1.8677,-1.8718,-1.8723,-1.8732,-1.8805,-1.8819,-1.8857,-1.8794,-1.8993,-1.8998,-1.9003,-1.9036,-1.9045,-1.9053,0,0,0,0,0,-1.8487,-1.8546,-1.854,-1.8554,-1.863,-1.8689,-1.8699,-1.8706,-1.8683,-1.8713,-1.8733,-1.8722,-1.8845,-1.8812,-1.8827,-1.8868,-1.8991,-1.8997,-1.9002,-1.9032,-1.9043,-1.9052,0,0,0,0,0,0,-1.8513,-1.8551,-1.8545,-1.8618,-1.8651,-1.8686,-1.8724,-1.8718,-1.8759,-1.8754,-1.8763,-1.8772,-1.8843,-1.8862,-1.8826,-1.8948,-1.8915,-1.8924,-1.8932,-1.8943,-1.8951,-1.8945,-1.8798,0,0,0,0,0,-1.8527,-1.8571,-1.8603,-1.8665,-1.8681,-1.87,-1.8726,-1.8729,-1.8764,-1.8778,-1.8802,-1.8837,-1.8884,-1.8915,-1.8959,-1.9039,-1.9049,-1.9075,-1.9083,-1.909,-1.9098,-1.9143,-1.9155,-1.9024,-1.9024,-1.9024,0,0,-1.8558,-1.8584,-1.8611,-1.8671,-1.8696,-1.8743,-1.8712,-1.8762,-1.8798,-1.8786,-1.8852,-1.8872,-1.8912,-1.8987,-1.9021,-1.9005,-1.9136,-1.9097,-1.9102,-1.9106,-1.915,-1.9162,-1.9173,-1.9028,-1.9028,-1.9027,0,0,-1.8636,-1.866,-1.8714,-1.8741,-1.878,-1.8792,-1.8805,-1.8843,-1.8855,-1.8921,-1.8913,-1.8957,-1.9036,-1.9066,-1.9091,-1.9183,-1.9175,-1.9197,-1.9241,-1.9285,-1.9295,-1.9304,-1.9338,-1.935,-1.9205,-1.9205,-1.9205,0,-1.8669,-1.8738,-1.8744,-1.8795,-1.8822,-1.8813,-1.8869,-1.8895,-1.8947,-1.8967,-1.8948,-1.9049,-1.9075,-1.9158,-1.918,-1.9201,-1.9217,-1.9192,-1.9293,-1.9302,-1.9311,-1.9343,-1.9356,-1.9208,-1.9207,-1.9207,-1.9207,0,-1.8777,-1.8825,-1.8865,-1.8914,-1.8946,-1.8999,-1.9015,-1.9047,-1.9048,-1.9063,-1.9132,-1.9163,-1.9214,-1.9234,-1.9236,-1.9317,-1.9306,-1.9291,-1.9257,-1.9326,-1.9356,-1.9368,-1.9211,-1.921,-1.921,-1.9209,0,0,-1.8873,-1.8926,-1.894,-1.8963,-1.9006,-1.9044,-1.9099,-1.9148,-1.9175,-1.9212,-1.9259,-1.9328,-1.9313,-1.9342,-1.9347,-1.9386,-1.9458,-1.9366,-1.9367,-1.9382,-1.9551,-1.9562,-1.9576,-1.9453,-1.9456,-1.9457,-1.9548,0,-1.8956,-1.905,-1.9057,-1.9143,-1.9188,-1.9181,-1.9229,-1.9261,-1.9278,-1.932,-1.9338,-1.9387,-1.9364,-1.9382,-1.942,-1.9441,-1.9492,-1.9435,-1.9498,-1.95,-1.9488,-1.9592,-1.9604,-1.9688,-1.956,-1.9562,-1.9563,0,-1.9064,-1.9103,-1.9193,-1.9231,-1.925,-1.9293,-1.9339,-1.9379,-1.9417,-1.9426,-1.9459,-1.9459,-1.9517,-1.9482,-1.9563,-1.9524,-1.9551,-1.9566,-1.9569,-1.9575,-1.9535,-1.9601,-1.9714,-1.9727,-1.9582,-1.958,-1.9579,0,-1.9126,-1.9202,-1.9265,-1.9285,-1.9331,-1.9361,-1.9382,-1.9417,-1.9446,-1.9488,-1.9507,-1.9555,-1.9582,-1.962,-1.9634,-1.9607,-1.9715,-1.9681,-1.9725,-1.9725,-1.9747,-1.9746,-1.9867,-1.9765,-1.9765,-1.9765,-1.9764,0,-1.9217,-1.9273,-1.9293,-1.9332,-1.9395,-1.9404,-1.9467,-1.9486,-1.9518,-1.9562,-1.956,-1.9601,-1.9617,-1.9662,-1.9674,-1.974,-1.9752,-1.9762,-1.9765,-1.9762,-1.9761,-1.978,-1.9774,-1.9768,-1.9767,-1.9767,-1.9766,0,-1.9296,-1.9312,-1.9381,-1.9419,-1.943,-1.9475,-1.9508,-1.9546,-1.9562,-1.9618,-1.9632,-1.9658,-1.9711,-1.9729,-1.9793,-1.9801,-1.9878,-1.9876,-1.9865,-1.9865,-1.9909,-1.9904,-2.0045,-2.0065,-1.995,-1.9952,-1.9952,0,-1.9353,-1.9396,-1.9438,-1.9467,-1.9488,-1.9535,-1.9565,-1.9577,-1.9609,-1.9656,-1.9689,-1.9742,-1.9784,-1.987,-1.9895,-1.9945,-1.9944,-1.999,-1.9951,-1.9948,-1.9945,-1.9942,-1.9947,-1.9997,-1.9998,-1.9999,-2.0,0,-1.9453,-1.9459,-1.9502,-1.9548,-1.9584,-1.9621,-1.9657,-1.9681,-1.9699,-1.9735,-1.9788,-1.9821,-1.9887,-1.994,-1.9991,-2.0014,-2.0011,-2.0012,-2.0025,-2.0023,-2.0015,-2.002,-1.9884,-2.0009,-2.0008,-2.0007,-2.0007,-2.0006,-1.9523,-1.9561,-1.9597,-1.9645,-1.9673,-1.9707,-1.9746,-1.9766,-1.9811,-1.9864,-1.987,-1.9928,-1.9967,-2.0035,-2.0061,-2.0108,-2.0095,-2.0113,-2.0118,-2.0123,-2.0126,-2.0008,-2.0117,-2.0117,-2.0117,-2.0116,-2.0116,0,-1.9623,-1.9646,-1.969,-1.974,-1.9779,-1.9771,-1.9811,-1.9844,-1.9895,-1.9931,-1.9973,-2.0035,-2.0087,-2.0116,-2.0168,-2.02,-2.02,-2.0214,-2.0211,-2.0217,-2.0134,-2.0118,-2.0213,-2.0213,-2.0213,-2.0213,-2.0213,-2.0213,-1.9679,-1.9743,-1.9754,-1.9832,-1.9855,-1.9911,-1.9935,-1.9967,-1.9995,-2.0065,-2.0107,-2.0126,-2.016,-2.0215,-2.0262,-2.027,-2.0289,-2.0304,-2.0311,-2.0233,-2.0223,-2.0213,-2.0198,-2.0308,-2.0309,-2.039,-2.0391,-2.0391]},{"header":{"parameterUnit":"m.s-1","parameterCategory":1,"la1":30.2991,"la2":30.254,"lo1":-89.0895,"lo2":-89.0444,"dx":0.0017,"dy":0.0017,"nx":28,"ny":28,"refTime":"2022-12-12T03:00:00:Z","depth":0,"parameterNumber":3,"parameterNumberName":"V-component_of_WINDS"},"data":[0,0,0,0,0,0,0,0,0,0,0,0,0,0,0,0,0,0,0,0,0,0,0,0,0,0,0,0,0,0,0,0,0,0,0,0,0,0,0,0,0,0,0,0,0,0,0,0,0,0,0,0,0,0,0,0,0,0,0.3971,0.397,0,0.3871,0.387,0.3869,0.3855,0.3856,0.3857,0.3858,0.3748,0.3744,0.3741,0,0,0,0,0,0,0,0,0,0,0,0,0,0.4145,0.4142,0.3971,0.397,0.3969,0.3871,0.387,0.3868,0.3855,0.3856,0.3857,0.3858,0.3749,0.3745,0.374,0,0,0,0,0,0,0,0,0,0,0,0,0,0.4059,0.4141,0.3972,0.3951,0.3948,0.3871,0.387,0.3868,0.3855,0.3856,0.3858,0.3859,0.3751,0.3745,0.374,0.3675,0,0,0.3722,0.372,0,0,0,0,0,0,0,0,0.4064,0.4053,0.3955,0.3952,0.3949,0.3877,0.3891,0.3803,0.3854,0.389,0.3858,0.386,0.3789,0.3781,0.3758,0.367,0.3665,0.3722,0.3718,0.3716,0.3714,0,0,0,0,0,0,0,0.407,0.4057,0.3931,0.3954,0.395,0.3944,0.3934,0.3874,0.3832,0.3887,0.3886,0.3874,0.3788,0.3764,0.3756,0.3664,0.3722,0.3717,0.3713,0.3711,0.3517,0.3515,0,0,0,0,0,0,0.4081,0.4062,0.3935,0.3928,0.4012,0.394,0.3928,0.3899,0.3833,0.3825,0.3873,0.3874,0.3773,0.3762,0.3752,0.3672,0.3716,0.371,0.3707,0.3518,0.3516,0.3514,0,0,0,0,0,0,0.4085,0.407,0.3939,0.3995,0.3978,0.3935,0.3902,0.3896,0.3872,0.3823,0.3815,0.3857,0.3774,0.376,0.3695,0.3668,0.3708,0.3703,0.352,0.3518,0.3515,0.3511,0,0,0,0,0,0,0.409,0.4071,0.4048,0.3995,0.3975,0.3885,0.3901,0.3893,0.3863,0.3863,0.3805,0.3797,0.3774,0.3703,0.3689,0.366,0.3698,0.3522,0.3519,0.3516,0.3513,0.3509,0.3505,0,0,0,0,0,0.4096,0.4049,0.4047,0.4031,0.3945,0.3884,0.3872,0.3849,0.3861,0.3836,0.3804,0.3799,0.3673,0.3697,0.368,0.365,0.3524,0.352,0.3516,0.3515,0.351,0.3505,0,0,0,0,0,0,0.4098,0.4042,0.4038,0.3974,0.3934,0.3882,0.385,0.3843,0.3797,0.3799,0.3769,0.3756,0.3692,0.3664,0.3692,0.3584,0.3599,0.3592,0.3604,0.3598,0.3594,0.3602,0.3693,0,0,0,0,0,0.4091,0.4048,0.4001,0.3948,0.3928,0.3893,0.3865,0.385,0.3807,0.3789,0.3753,0.3709,0.366,0.3627,0.3579,0.351,0.3496,0.348,0.3476,0.3473,0.3466,0.3427,0.3419,0.3502,0.3502,0.3502,0,0,0.4076,0.404,0.4014,0.3947,0.3915,0.3869,0.3878,0.3829,0.3794,0.3781,0.3718,0.369,0.3638,0.3571,0.3539,0.3546,0.3441,0.3468,0.3465,0.3461,0.3422,0.3414,0.3407,0.3499,0.3499,0.35,0,0,0.4024,0.3994,0.3946,0.3914,0.3866,0.3842,0.3831,0.378,0.3761,0.3698,0.3687,0.3644,0.3559,0.3524,0.3494,0.343,0.3423,0.3415,0.3392,0.3353,0.3347,0.3341,0.3317,0.3309,0.3409,0.3409,0.3409,0,0.4011,0.3944,0.3922,0.3874,0.3844,0.3832,0.3783,0.3752,0.3689,0.3668,0.3677,0.3571,0.3536,0.3459,0.3444,0.3421,0.3405,0.3421,0.335,0.3344,0.3338,0.3315,0.3306,0.3408,0.3408,0.3408,0.3408,0,0.3929,0.3882,0.3849,0.3792,0.3758,0.371,0.3679,0.3647,0.3635,0.361,0.3545,0.3503,0.3446,0.3427,0.3414,0.3348,0.3353,0.3356,0.3371,0.333,0.3307,0.3298,0.3407,0.3408,0.3408,0.3408,0,0,0.3875,0.3807,0.3796,0.3769,0.3715,0.3678,0.3628,0.3574,0.3547,0.3504,0.346,0.339,0.3392,0.3359,0.3342,0.3308,0.3259,0.3315,0.3313,0.3306,0.3183,0.3181,0.3171,0.3255,0.3253,0.3251,0.3187,0,0.3817,0.3731,0.371,0.3635,0.3591,0.3579,0.3536,0.3496,0.3472,0.3429,0.3401,0.3351,0.3358,0.3338,0.3305,0.3273,0.3234,0.3277,0.3211,0.3209,0.3224,0.316,0.3157,0.3098,0.3178,0.3177,0.3176,0,0.3738,0.3696,0.3618,0.357,0.355,0.3512,0.3461,0.3421,0.3375,0.336,0.3323,0.331,0.3255,0.3274,0.3197,0.3227,0.3198,0.3179,0.3176,0.3168,0.319,0.3149,0.3079,0.307,0.3162,0.3163,0.3164,0,0.3706,0.363,0.3573,0.3551,0.3493,0.3466,0.3441,0.3397,0.3366,0.3321,0.3301,0.3249,0.322,0.3179,0.3151,0.3167,0.3076,0.3093,0.306,0.3061,0.3041,0.3042,0.2964,0.3024,0.3024,0.3024,0.3024,0,0.3644,0.3596,0.3558,0.3523,0.3469,0.3444,0.339,0.3364,0.3325,0.3283,0.3269,0.3229,0.3195,0.315,0.3127,0.3067,0.3054,0.3038,0.3032,0.3039,0.3041,0.3019,0.3022,0.3022,0.3022,0.3023,0.3023,0,0.3599,0.3572,0.3509,0.3461,0.3447,0.3409,0.3366,0.333,0.3306,0.3253,0.3238,0.3199,0.3145,0.3113,0.3045,0.3029,0.2962,0.2959,0.2978,0.2976,0.2944,0.2948,0.2849,0.2835,0.2905,0.2904,0.2904,0,0.356,0.3524,0.3472,0.3444,0.3419,0.3374,0.3343,0.3317,0.3285,0.3231,0.3201,0.3147,0.3102,0.3017,0.298,0.2927,0.2922,0.2891,0.2914,0.2921,0.292,0.2923,0.2918,0.2887,0.2886,0.2886,0.2886,0,0.3495,0.3484,0.3441,0.3394,0.3358,0.3318,0.3279,0.3256,0.3223,0.3188,0.3134,0.31,0.3031,0.2977,0.2921,0.2892,0.2882,0.2879,0.2868,0.2874,0.2887,0.2879,0.2967,0.2881,0.2881,0.2882,0.2882,0.2882,0.3451,0.3418,0.3377,0.333,0.3298,0.3262,0.3226,0.3198,0.3153,0.3097,0.3083,0.3027,0.2981,0.2906,0.2875,0.2829,0.2834,0.2819,0.2815,0.2811,0.281,0.2896,0.2819,0.2819,0.2819,0.2819,0.2819,0,0.3385,0.3358,0.3315,0.3262,0.3224,0.3221,0.3178,0.3145,0.3097,0.3056,0.3013,0.2951,0.2898,0.2858,0.2804,0.2774,0.2769,0.2761,0.2762,0.2756,0.2809,0.2824,0.2767,0.2767,0.2767,0.2767,0.2767,0.2767,0.3346,0.329,0.3273,0.32,0.3173,0.3119,0.3094,0.306,0.3028,0.296,0.2917,0.2892,0.2851,0.2794,0.2745,0.2734,0.2714,0.2707,0.2695,0.2746,0.2752,0.2757,0.2771,0.2703,0.2703,0.2646,0.2645,0.2645]}]]